Location: Betz
(49.1556°N, 2.9558°E)
Time: 08:42:16
(UTC+00:00)

NOSS 0 Rocket - Pass Details

Date: 18 September 2019
Orbit: 935 x 955 km, 70.0° (Epoch: 20 October)

Event Time Altitude Azimuth Distance (km) Brightness Sun altitude
Rises 19:28:33 0° 328° (NNW) 3,620 7.9 -15.6°
Reaches altitude 10° 19:31:05 10° 326° (NW) 2,675 7.2 -16.0°
Maximum altitude 19:37:14 67° 245° (WSW) 1,026 4.2 -16.9°
Enters shadow 19:42:55 12° 165° (SSE) 2,505 5.8 -17.8°
